User: anonymous   Login
Location: Grust
(42.8833°N, 0.0333°W)
Time: 00:15:08
(UTC+00:00)
Language:

Helios 1A Rocket - Orbit

View from above orbital plane
View from above orbital plane
View from above satellite
View from above satellite

Ground track
Ground track

The orbit data is extracted from the following two-line orbital elements,

1 23608U 95033D   21015.55732274  .00000948  00000-0  86893-4 0  9992
2 23608  98.3102  46.5082 0014983 257.4255 102.5289 14.97529552383183
Epoch (UTC): 15 January 2021 13:22:32
Eccentricity: 0.0014983
inclination: 98.3102°
perigee height: 564 km
apogee height: 585 km
right ascension of ascending node: 46.5082°
argument of perigee: 257.4255°
revolutions per day: 14.97529552
mean anomaly at epoch: 102.5289°
orbit number at epoch: 38318

The dashed part of the orbit path shows where the satellite is in the earth's shadow,  

DLR